DW3195 Weather Reports


time (UTC)temp
F
wind
direction
speed
knots
gust
knots
rain 1hr
in
rain 24hr
in
rain mn
in
humidity
%
barometer
mb
20260509111505 42 85 0.9 1.7 0.00 0.00 0.00 97 921.0
20260509111005 42 128 0.0 1.7 0.00 0.00 0.00 97 920.9
20260509110004 42 139 1.7 2.6 0.00 0.00 0.00 97 920.7
20260509104504 42 140 1.7 2.6 0.00 0.00 0.00 97 920.7
20260509104006 42 142 1.7 2.6 0.00 0.00 0.00 97 920.7
20260509101505 42 1 0.0 1.7 0.00 0.00 0.00 96 920.4
20260509101006 42 4 0.9 1.7 0.00 0.00 0.00 96 920.4
20260509100505 42 100 0.0 0.9 0.00 0.00 0.00 96 920.2
20260509100006 42 77 0.0 0.9 0.00 0.00 0.00 96 920.2
20260509094505 42 292 0.0 0.9 0.00 0.00 0.00 95 920.2
20260509094006 42 93 0.0 0.9 0.00 0.00 0.00 95 920.2
20260509093506 42 105 0.0 0.9 0.00 0.00 0.00 95 920.2
20260509093005 43 73 0.0 1.7 0.00 0.00 0.00 95 920.4
20260509091505 43 137 0.9 1.7 0.00 0.00 0.00 96 920.5
20260509091005 43 101 0.9 0.9 0.00 0.00 0.00 95 920.6
20260509090505 43 118 0.9 0.9 0.00 0.00 0.00 95 920.6
20260509084006 44 65 0.9 1.7 0.00 0.00 0.00 94 920.6
20260509083505 44 101 0.9 2.6 0.00 0.00 0.00 94 920.7
20260509083006 44 141 1.7 2.6 0.00 0.00 0.00 94 920.7
20260509081505 44 142 1.7 2.6 0.00 0.00 0.00 92 920.8
20260509081005 45 142 1.7 2.6 0.00 0.00 0.00 92 920.8
20260509080506 45 131 1.7 2.6 0.00 0.00 0.00 92 920.8
20260509080005 45 137 2.6 4.3 0.00 0.00 0.00 91 920.7
20260509074505 48 141 2.6 5.2 0.00 0.00 0.00 85 920.7
20260509074006 50 145 2.6 4.3 0.00 0.00 0.00 82 920.7
20260509073506 51 34 0.9 2.6 0.00 0.00 0.00 81 920.6
20260509073005 52 9 2.6 7.0 0.00 0.00 0.00 80 920.5
20260509071505 51 328 2.6 7.0 0.00 0.00 0.00 80 920.6
20260509071006 50 334 2.6 6.1 0.00 0.00 0.00 81 920.5
20260509070505 50 323 2.6 6.1 0.00 0.00 0.00 82 920.6
20260509070005 50 297 1.7 5.2 0.00 0.00 0.00 81 920.6
20260509063506 51 355 0.9 2.6 0.00 0.00 0.00 79 920.9
20260509063005 52 8 2.6 5.2 0.00 0.00 0.00 78 921.0
20260509061505 52 322 1.7 5.2 0.00 0.00 0.00 76 921.2
20260509061005 52 329 1.7 2.6 0.00 0.00 0.00 75 921.2
20260509060505 52 329 2.6 6.1 0.00 0.00 0.00 75 921.2
20260509060005 52 303 2.6 6.1 0.00 0.00 0.00 75 921.3
20260509054506 53 310 1.7 4.3 0.00 0.00 0.00 73 921.4
20260509054005 53 313 2.6 6.1 0.00 0.00 0.00 72 921.5
20260509053505 53 302 2.6 5.2 0.00 0.00 0.00 72 921.5
20260509051505 48 298 4.3 7.0 0.00 0.00 0.00 76 921.6
20260509051004 46 309 3.5 5.2 0.00 0.00 0.00 80 921.7
20260509050005 43 339 0.9 2.6 0.00 0.00 0.00 92 921.7
20260509044505 40 319 0.9 2.6 0.00 0.00 0.00 96 921.8
20260509044004 40 351 0.9 2.6 0.00 0.00 0.00 96 921.6
20260509043505 40 75 0.9 1.7 0.00 0.00 0.00 96 921.6
20260509043005 40 64 0.0 1.7 0.00 0.00 0.00 96 921.6
20260509041005 39 11 0.9 2.6 0.00 0.00 0.00 95 921.6
20260509040505 39 41 0.9 1.7 0.00 0.00 0.00 95 921.7
20260509040005 39 106 0.0 1.7 0.00 0.05 0.00 95 921.8
20260509034504 39 142 0.9 1.7 0.00 0.05 0.00 95 921.8
20260509033504 40 129 0.0 0.9 0.00 0.05 0.00 94 921.8
20260509033005 40 107 0.0 0.9 0.00 0.05 0.00 94 921.8
20260509031005 40 30 0.0 0.9 0.00 0.05 0.00 93 922.0
20260509030505 40 356 0.0 0.9 0.00 0.05 0.00 93 922.0
20260509030004 40 38 0.9 0.9 0.00 0.05 0.00 94 922.0
20260509024504 41 202 0.0 0.9 0.00 0.05 0.00 93 922.1
20260509024004 41 83 0.0 0.9 0.00 0.05 0.00 92 922.2
20260509023504 41 148 0.0 0.9 0.00 0.05 0.00 92 922.3
20260509023005 41 36 0.0 1.7 0.00 0.05 0.00 91 922.4
20260509021504 42 77 0.0 0.9 0.00 0.05 0.00 91 922.3
20260509021004 42 66 0.0 0.9 0.00 0.05 0.00 90 922.3
20260509020505 42 62 0.0 0.9 0.00 0.05 0.00 89 922.4
20260509020004 42 83 0.0 1.7 0.00 0.05 0.00 90 922.4
20260509014505 43 37 0.0 0.9 0.00 0.05 0.00 89 922.1
20260509014004 43 35 0.0 1.7 0.00 0.05 0.00 88 922.1
20260509013505 43 43 0.0 1.7 0.00 0.05 0.00 88 922.1
20260509013006 44 10 0.9 1.7 0.00 0.05 0.00 88 922.1
20260509011506 44 79 0.0 1.7 0.00 0.05 0.00 86 921.9
20260509011006 45 20 0.9 1.7 0.00 0.05 0.00 86 921.9
20260509010506 45 58 0.9 1.7 0.00 0.05 0.00 84 921.8
20260509010006 46 46 0.0 0.9 0.00 0.05 0.00 83 921.7
20260509004505 48 119 0.0 0.9 0.00 0.05 0.00 80 921.6
20260509004006 48 39 0.0 1.7 0.00 0.05 0.00 79 921.6
20260509003506 49 59 0.9 1.7 0.00 0.05 0.00 78 921.6
20260509003006 50 140 0.0 0.9 0.00 0.05 0.00 77 921.6
20260509001505 53 101 0.0 0.9 0.00 0.05 0.00 71 921.6
20260509000506 55 40 0.0 0.9 0.00 0.05 0.00 66 921.8
20260508234506 59 3 1.7 2.6 0.00 0.05 0.00 50 921.8
20260508234005 60 7 1.7 2.6 0.00 0.05 0.00 47 921.8
20260508233505 61 358 1.7 4.3 0.00 0.05 0.00 46 921.9
20260508233006 62 5 1.7 4.3 0.00 0.05 0.00 45 921.9
20260508231006 66 307 2.6 6.1 0.00 0.05 0.00 37 922.0
20260508230006 67 283 1.7 6.1 0.00 0.05 0.00 38 921.8
20260508224505 67 290 2.6 6.1 0.00 0.05 0.00 35 921.7
20260508223505 67 293 3.5 6.1 0.00 0.05 0.00 35 921.5
20260508223008 67 320 1.7 5.2 0.00 0.05 0.00 35 921.5
20260508221507 67 139 0.0 0.0 0.00 0.05 0.00 33 921.3
20260508221006 67 139 0.0 0.0 0.00 0.05 0.00 37 921.4
20260508220006 67 139 0.0 0.0 0.00 0.05 0.00 38 921.4
20260508213005 67 139 0.0 0.0 0.00 0.05 0.00 40 921.5
20260508211506 69 139 0.0 0.0 0.00 0.05 0.00 39 921.5
20260508211006 68 139 0.0 0.0 0.00 0.05 0.00 40 921.7
20260508210506 67 139 0.0 0.0 0.00 0.05 0.00 41 921.8
20260508210005 67 139 0.0 0.0 0.00 0.05 0.00 40 921.9
20260508204505 68 139 0.0 0.0 0.00 0.05 0.00 40 921.9
20260508204006 68 139 0.0 0.0 0.00 0.05 0.00 39 922.0
20260508203507 68 139 0.0 0.0 0.00 0.05 0.00 39 922.1
20260508203005 68 139 0.0 0.0 0.00 0.05 0.00 40 922.2
20260508201506 66 139 0.0 0.0 0.00 0.05 0.00 38 922.5
20260508201006 66 139 0.0 0.0 0.00 0.05 0.00 41 922.6
20260508200506 66 139 0.0 0.0 0.00 0.05 0.00 39 922.6
20260508200005 66 139 0.0 0.0 0.00 0.05 0.00 40 922.7
20260508194506 67 139 0.0 0.0 0.00 0.05 0.00 38 922.9
20260508194006 67 139 0.0 0.0 0.00 0.05 0.00 41 922.8
20260508193506 66 139 0.0 0.0 0.00 0.05 0.00 39 922.9
20260508193005 66 139 0.0 0.0 0.00 0.05 0.00 41 922.9
20260508191505 66 139 0.0 0.0 0.00 0.05 0.00 39 923.0
20260508191006 66 139 0.0 0.0 0.00 0.05 0.00 37 923.1
20260508190506 66 139 0.0 0.0 0.00 0.05 0.00 40 923.1
20260508190005 66 139 0.0 0.0 0.00 0.05 0.00 42 923.1
20260508184505 65 139 0.0 0.0 0.00 0.05 0.00 38 923.2
20260508184005 65 139 0.0 0.0 0.00 0.05 0.00 41 923.4
20260508183505 65 139 0.0 0.0 0.00 0.05 0.00 41 923.4
20260508183005 65 139 0.0 0.0 0.00 0.05 0.00 43 923.4
20260508181505 64 139 0.0 0.0 0.00 0.05 0.00 41 923.7
20260508180505 64 139 0.0 0.0 0.00 0.05 0.00 46 923.8
20260508180005 63 139 0.0 0.0 0.00 0.05 0.00 45 923.8
20260508174505 64 139 0.0 0.0 0.00 0.05 0.00 42 923.9
20260508173505 64 139 0.0 0.0 0.00 0.05 0.00 44 924.2
20260508173005 64 139 0.0 0.0 0.00 0.05 0.00 43 924.1
20260508171005 63 139 0.0 0.0 0.00 0.05 0.00 45 924.5
20260508170505 63 139 0.0 0.0 0.00 0.05 0.00 45 924.6
20260508170006 63 139 0.0 0.0 0.00 0.05 0.00 46 924.7
20260508164005 62 139 0.0 0.0 0.00 0.05 0.00 44 925.0
20260508163505 61 139 0.0 0.0 0.00 0.05 0.00 41 925.0
20260508163006 61 139 0.0 0.0 0.00 0.05 0.00 44 925.1
20260508161506 60 139 0.0 0.0 0.00 0.05 0.00 43 925.3
20260508161006 60 139 0.0 0.0 0.00 0.05 0.00 43 925.3
20260508160506 61 139 0.0 0.0 0.00 0.05 0.00 40 925.4
20260508160006 60 139 0.0 0.0 0.00 0.05 0.00 44 925.5
20260508154006 60 139 0.0 0.0 0.00 0.05 0.00 42 925.6
20260508153506 59 139 0.0 0.0 0.00 0.05 0.00 40 925.6
20260508153006 60 139 0.0 0.0 0.00 0.05 0.00 42 925.7
20260508151006 59 139 0.0 0.0 0.00 0.05 0.00 49 925.6
20260508150507 59 139 0.0 0.0 0.00 0.05 0.00 49 925.7
20260508150007 59 139 0.0 0.0 0.00 0.05 0.00 50 925.6
20260508144506 58 139 0.0 0.0 0.00 0.05 0.00 46 925.5
20260508143007 58 139 0.0 0.0 0.00 0.05 0.00 52 925.6
20260508141506 56 139 0.0 0.0 0.00 0.05 0.00 48 925.6
20260508141006 56 139 0.0 0.0 0.00 0.05 0.00 52 925.7
20260508140506 56 139 0.0 0.0 0.00 0.05 0.00 55 925.7
20260508140006 55 139 0.0 0.0 0.00 0.05 0.00 54 925.8
20260508134506 54 139 0.0 0.0 0.00 0.05 0.00 57 925.8
20260508134005 53 139 0.0 0.0 0.00 0.05 0.00 60 925.8
20260508133006 52 139 0.0 0.0 0.00 0.05 0.00 60 925.7
20260508131006 47 139 0.0 0.0 0.00 0.05 0.00 80 925.6
20260508130506 46 139 0.0 0.0 0.00 0.05 0.00 92 925.6
20260508130005 45 139 0.0 0.0 0.00 0.05 0.00 96 925.6
20260508124506 42 139 0.0 0.0 0.00 0.05 0.00 100 925.6
20260508124005 41 139 0.0 0.0 0.00 0.05 0.00 100 925.6
20260508123006 38 139 0.0 0.0 0.00 0.05 0.00 100 925.5
20260508121506 33 139 0.0 0.0 0.00 0.05 0.00 99 925.4
20260508121006 32 139 0.0 0.0 0.00 0.05 0.00 99 925.4
20260508120506 32 139 0.0 0.0 0.00 0.05 0.00 99 925.4
20260508120005 31 139 0.0 0.0 0.00 0.05 0.00 99 925.3
20260508113506 30 139 0.0 0.0 0.00 0.05 0.00 99 925.3